Ansonville, NC

7:56 AM EDT on July 28, 2016 (GMT -0400)
Anson County

Weather History for KAFP - June, 2013

Change the Weather History Date:

Thursday, June 20, 2013

  Actual Average (KCLT) Record (KCLT)
Temperature  
Mean Temperature 74 °F 76 °F  
Max Temperature 84 °F 87 °F 102 °F (1887)
Min Temperature 64 °F 66 °F 54 °F (1879)
Degree Days  
Heating Degree Days 0 0  
Month to date heating degree days 0  
Since 1 June heating degree days 0  
Since 1 July heating degree days 3385  
Cooling Degree Days 9 11  
Month to date cooling degree days 187  
Year to date cooling degree days 350  
Since 1 June cooling degree days 187  
Growing Degree Days 24 (Base 50)    
Moisture  
Dew Point 63 °F    
Average Humidity 73    
Maximum Humidity 98    
Minimum Humidity 43    
Precipitation  
Precipitation 0.00 in 0.12 in 1.67 in (1972)
Month to date precipitation 2.60  
Year to date precipitation 19.56  
Snow  
Snow 0.00 in 0.00 in 0.00 in ()
Month to date snowfall 0.0  
Since 1 June snowfall 0.0  
Since 1 July snowfall 4.3  
Snow Depth -    
Sea Level Pressure  
Sea Level Pressure 30.18 in    
Wind  
Wind Speed 2 mph (NNE)    
Max Wind Speed 9 mph    
Max Gust Speed 9 mph    
Visibility 8 miles    
Events      
T = Trace of Precipitation, MM = Missing Value Source: NWS Daily Summary

Daily Weather History Graph

Daily Weather History Graph

Search for Another Location

Airport or City:

Trip Planner

Search our weather history database for the weather conditions in past years. The results will help you decide how hot, cold, wet, or windy it might be!

Date:

Astronomy

Jun. 20, 2013 Rise Set
Actual Time 6:06 AM EDT 8:37 PM EDT
Civil Twilight 5:36 AM EDT 9:07 PM EDT
Nautical Twilight 4:59 AM EDT 9:43 PM EDT
Astronomical Twilight 4:19 AM EDT 10:24 PM EDT
Moon 5:41 PM EDT (6/20) 3:26 AM EDT (6/20)
Length of Visible Light 15h 30m
Length of Day
14h 30m
Waxing Gibbous, 89% of the Moon is Illuminated
Jun 20
Waxing Gibbous
Jun 23
Full
Jun 30
Last Quarter
Jul 8
New
Jul 15
First Quarter

Hourly Weather History & Observations

Time (EDT) Temp. Heat Index Dew Point Humidity Pressure Visibility Wind Dir Wind Speed Gust Speed Precip Events Conditions
12:15 AM 68.9 °F - 66.4 °F 92% 30.12 in 7.0 mi Calm Calm - N/A   Clear
12:35 AM 68.0 °F - 66.2 °F 94% 30.12 in 7.0 mi Calm Calm - N/A   Clear
12:55 AM 68.2 °F - 66.7 °F 95% 30.12 in 5.0 mi Calm Calm - N/A   Clear
1:15 AM 68.0 °F - 66.6 °F 95% 30.13 in 4.0 mi Calm Calm - N/A   Scattered Clouds
1:35 AM 67.6 °F - 66.4 °F 96% 30.13 in 4.0 mi Calm Calm - N/A   Mostly Cloudy
1:55 AM 67.5 °F - 66.2 °F 96% 30.12 in 5.0 mi Calm Calm - N/A   Mostly Cloudy
2:15 AM 66.6 °F - 65.5 °F 96% 30.13 in 3.0 mi Calm Calm - N/A   Scattered Clouds
2:35 AM 66.7 °F - 65.7 °F 96% 30.12 in 2.5 mi Calm Calm - N/A   Clear
2:55 AM 66.4 °F - 65.5 °F 97% 30.12 in 3.0 mi Calm Calm - N/A   Clear
3:15 AM 66.2 °F - 65.3 °F 97% 30.13 in 2.5 mi Calm Calm - N/A   Clear
3:35 AM 66.2 °F - 65.3 °F 97% 30.13 in 2.5 mi Calm Calm - N/A   Clear
3:55 AM 66.2 °F - 65.3 °F 97% 30.13 in 2.5 mi Calm Calm - N/A   Clear
4:15 AM 65.5 °F - 64.8 °F 98% 30.14 in 2.0 mi Calm Calm - N/A   Clear
4:35 AM 65.5 °F - 64.8 °F 98% 30.14 in 2.0 mi Calm Calm - N/A   Clear
4:55 AM - - - N/A% 30.14 in 1.5 mi Calm Calm - N/A   Mist
5:15 AM 65.3 °F - 64.6 °F 98% 30.14 in 2.5 mi Calm Calm - N/A   Clear
5:35 AM 65.3 °F - 64.4 °F 97% 30.15 in 2.0 mi Calm Calm - N/A   Clear
5:55 AM 64.9 °F - 64.4 °F 98% 30.16 in 2.5 mi Calm Calm - N/A   Clear
6:15 AM 64.0 °F - 63.5 °F 98% 30.16 in 2.0 mi Calm Calm - N/A   Clear
6:35 AM 64.0 °F - 63.5 °F 98% 30.18 in 2.0 mi North 3.5 mph - N/A   Clear
6:55 AM 64.8 °F - 64.0 °F 98% 30.18 in 1.8 mi Calm Calm - N/A   Mist
7:15 AM 65.7 °F - 64.9 °F 98% 30.19 in 2.0 mi Calm Calm - N/A   Clear
7:35 AM 66.6 °F - 65.8 °F 98% 30.20 in 3.0 mi Calm Calm - N/A   Clear
7:55 AM 67.8 °F - 66.9 °F 97% 30.21 in 5.0 mi NNE 5.8 mph - N/A   Clear
8:15 AM 68.0 °F - 65.8 °F 93% 30.21 in 5.0 mi NNE 6.9 mph - N/A   Mostly Cloudy
8:35 AM 68.9 °F - 65.5 °F 89% 30.22 in 7.0 mi NNE 6.9 mph - N/A   Overcast
8:55 AM 70.2 °F - 65.1 °F 84% 30.22 in 10.0 mi NNE 4.6 mph - N/A   Mostly Cloudy
9:15 AM 71.8 °F - 64.2 °F 77% 30.22 in 10.0 mi NE 5.8 mph - N/A   Scattered Clouds
9:35 AM 73.4 °F - 63.7 °F 71% 30.22 in 10.0 mi NE 8.1 mph - N/A   Clear
9:55 AM 74.3 °F - 62.8 °F 67% 30.22 in 10.0 mi NE 6.9 mph - N/A   Clear
10:15 AM 75.6 °F - 62.8 °F 64% 30.22 in 10.0 mi NNE 5.8 mph - N/A   Clear
10:35 AM 76.1 °F - 61.5 °F 60% 30.22 in 10.0 mi NNE 5.8 mph - N/A   Clear
10:55 AM 77.5 °F - 61.3 °F 57% 30.23 in 10.0 mi NE 8.1 mph - N/A   Clear
11:15 AM 78.3 °F - 60.1 °F 53% 30.23 in 10.0 mi NE 5.8 mph - N/A   Clear
11:35 AM 78.8 °F - 61.0 °F 54% 30.22 in 10.0 mi NNE 9.2 mph - N/A   Clear
11:55 AM - - - N/A% - - North - - N/A   Unknown
12:15 PM 79.9 °F - 60.8 °F 52% 30.22 in 10.0 mi ENE 6.9 mph - N/A   Scattered Clouds
12:35 PM 79.9 °F - 61.7 °F 54% 30.22 in 10.0 mi NNE 6.9 mph - N/A   Scattered Clouds
12:55 PM 81.5 °F 82.5 °F 62.2 °F 52% 30.22 in 10.0 mi NNE 6.9 mph - N/A   Scattered Clouds
1:15 PM 81.5 °F 82.2 °F 61.2 °F 50% 30.22 in 10.0 mi North 6.9 mph - N/A   Scattered Clouds
1:35 PM 81.3 °F 81.9 °F 60.4 °F 49% 30.21 in 10.0 mi NNE 9.2 mph - N/A   Scattered Clouds
1:55 PM 82.8 °F 83.0 °F 60.1 °F 46% 30.21 in 10.0 mi North 4.6 mph - N/A   Scattered Clouds
2:15 PM 81.9 °F 82.3 °F 60.3 °F 48% 30.21 in 10.0 mi NE 6.9 mph - N/A   Scattered Clouds
2:35 PM 83.1 °F 83.2 °F 59.5 °F 45% 30.21 in 10.0 mi NNE 5.8 mph - N/A   Scattered Clouds
2:55 PM 83.3 °F 83.4 °F 60.1 °F 45% 30.20 in 10.0 mi NE 3.5 mph - N/A   Scattered Clouds
3:15 PM 82.9 °F 83.2 °F 60.3 °F 46% 30.20 in 10.0 mi NNE 6.9 mph - N/A   Scattered Clouds
3:35 PM 82.9 °F 83.2 °F 59.9 °F 46% 30.20 in 10.0 mi NNE 3.5 mph - N/A   Scattered Clouds
3:55 PM 83.7 °F 83.8 °F 60.4 °F 45% 30.20 in 10.0 mi NNE 5.8 mph 9.2 mph N/A   Scattered Clouds
4:15 PM 83.1 °F 83.0 °F 59.2 °F 44% 30.19 in 10.0 mi Calm Calm - N/A   Scattered Clouds
4:35 PM 84.2 °F 84.2 °F 59.9 °F 44% 30.18 in 10.0 mi North 8.1 mph - N/A   Clear
4:55 PM 83.8 °F 83.6 °F 59.4 °F 43% 30.18 in 10.0 mi ENE 5.8 mph - N/A   Scattered Clouds
5:15 PM 83.3 °F 83.2 °F 59.2 °F 44% 30.18 in 10.0 mi NNE 4.6 mph - N/A   Clear
5:35 PM 82.8 °F 83.0 °F 59.9 °F 46% 30.17 in 10.0 mi NNE 6.9 mph - N/A   Clear
5:55 PM 83.3 °F 83.5 °F 60.4 °F 46% 30.17 in 10.0 mi NNE 8.1 mph - N/A   Clear
6:15 PM 83.3 °F 83.5 °F 60.8 °F 46% 30.17 in 10.0 mi NNE 4.6 mph - N/A   Clear
6:35 PM 82.8 °F 83.1 °F 60.6 °F 47% 30.17 in 10.0 mi NNE 3.5 mph - N/A   Clear
6:55 PM 82.4 °F 83.0 °F 61.3 °F 49% 30.17 in 10.0 mi NNE 4.6 mph - N/A   Clear
7:15 PM 81.5 °F 82.5 °F 62.2 °F 52% 30.17 in 10.0 mi NNE 4.6 mph - N/A   Clear
7:35 PM 80.6 °F 81.6 °F 61.7 °F 52% 30.18 in 10.0 mi NNE 4.6 mph - N/A   Clear
7:55 PM 79.3 °F - 62.4 °F 56% 30.18 in 10.0 mi NNE 3.5 mph - N/A   Clear
8:15 PM 77.5 °F - 63.7 °F 62% 30.18 in 10.0 mi Calm Calm - N/A   Clear
8:35 PM 75.9 °F - 64.2 °F 67% 30.18 in 10.0 mi Calm Calm - N/A   Clear
8:55 PM 74.1 °F - 64.8 °F 72% 30.18 in 10.0 mi Calm Calm - N/A   Clear
9:15 PM 72.5 °F - 65.3 °F 78% 30.19 in 10.0 mi Calm Calm - N/A   Clear
9:35 PM 71.8 °F - 65.5 °F 80% 30.19 in 10.0 mi Calm Calm - N/A   Clear
9:55 PM 69.8 °F - 65.3 °F 86% 30.20 in 10.0 mi Calm Calm - N/A   Clear
10:15 PM 69.1 °F - 65.1 °F 87% 30.21 in 10.0 mi Calm Calm - N/A   Clear
10:35 PM 68.4 °F - 64.9 °F 89% 30.21 in 10.0 mi Calm Calm - N/A   Clear
10:55 PM 67.6 °F - 64.4 °F 89% 30.22 in 10.0 mi Calm Calm - N/A   Clear
11:15 PM 67.3 °F - 63.7 °F 88% 30.22 in 10.0 mi Calm Calm - N/A   Clear
11:35 PM 66.7 °F - 63.7 °F 90% 30.22 in 10.0 mi Calm Calm - N/A   Clear
11:55 PM 66.2 °F - 63.5 °F 91% 30.22 in 10.0 mi Calm Calm - N/A   Clear